Home   Weather   Uppsala   Past weeks

Flag for Sweden Past Weather in Uppsala, Sweden — Yesterday and Last 2 Weeks

Now
54 °F

Clear.


Feels Like: 52 °F
Forecast: 60 / 68 °F
Wind: 7 mph from West

Location: Stockholm / Arlanda

Current Time: Aug 31, 2016 at 4:29:21 AM

Latest Report: Aug 31, 2016 at 3:50 AM


Visibility: 10 mi

Pressure: 29.98 "Hg

Humidity: 100%

Dew Point: 54 °F

Location of UppsalaLocation

Past Weather in Uppsala — Graph

°F

Uppsala Temperature Yesterday

Maximum temperature yesterday: 64 °F (at 1:50 PM)
Minimum temperature yesterday: 48 °F (at 5:50 AM)
Average temperature yesterday: 57 °F

High & Low Weather Summary for the Past Weeks

 TemperatureHumidityPressure
High81 °F (Aug 26, 2:20 PM)100% (Aug 17, 2:50 PM)30.27 "Hg (Aug 17, 2:50 PM)
Low45 °F (Aug 28, 2:50 AM)33% (Aug 24, 2:50 PM)29.59 "Hg (Aug 29, 2:50 PM)
Average61 °F81%29.96 "Hg
* Reported Aug 16 2:20 AM — Aug 31 2:50 AM, Uppsala, Weather by CustomWeather, © 2016

Note: Actual official high and low records may vary slightly from our data, if they occured in-between our weather recording intervals... More about our weather records

Advertising

Uppsala Weather History for the Previous 24 Hours

Scroll right to see more
 ConditionsComfort  
Time TempWeatherWind HumidityBarometerVisibility
2:50 AM
Wed, Aug 31
54 °FClear.7 mph100%29.98 "Hg10 mi
2:20 AM54 °FClear.6 mph100%29.98 "Hg10 mi
1:50 AM54 °FClear.6 mph100%29.98 "Hg10 mi
1:20 AM55 °FClear.7 mph94%29.98 "Hg10 mi
12:50 AM55 °FClear.8 mph94%29.98 "Hg10 mi
12:20 AM55 °FClear.9 mph94%29.98 "Hg10 mi
11:50 PM
Tue, Aug 30
55 °FClear.9 mph94%29.98 "Hg10 mi
11:20 PM55 °FClear.8 mph88%29.98 "Hg10 mi
10:50 PM57 °FClear.9 mph82%29.95 "Hg10 mi
10:20 PM57 °FPassing clouds.8 mph77%29.95 "HgN/A
9:50 PM57 °FPassing clouds.6 mph77%29.95 "HgN/A
9:20 PM59 °FClear.6 mph72%29.95 "Hg10 mi
8:50 PM59 °FSunny.8 mph72%29.95 "Hg10 mi
8:20 PM61 °FSunny.12 mph68%29.95 "Hg10 mi
7:50 PM61 °FSunny.12 mph68%29.95 "Hg10 mi
7:20 PM63 °FSunny.13 mph64%29.95 "Hg10 mi
6:50 PM63 °FSunny.12 mph64%29.95 "Hg10 mi
6:20 PM63 °FPassing clouds.17 mph64%29.95 "HgN/A
5:50 PM63 °FPassing clouds.14 mph64%29.92 "HgN/A
5:20 PM64 °FPassing clouds.17 mph60%29.92 "HgN/A
4:50 PM64 °FPassing clouds.17 mph56%29.92 "HgN/A
4:20 PM64 °FScattered clouds.20 mph60%29.92 "HgN/A
3:50 PM64 °FScattered clouds.18 mph60%29.95 "HgN/A
3:20 PM64 °FPassing clouds.16 mph60%29.95 "HgN/A
2:50 PM64 °FPassing clouds.16 mph60%29.95 "HgN/A
2:20 PM64 °FPassing clouds.14 mph60%29.95 "HgN/A
1:50 PM64 °FSunny.13 mph64%29.95 "Hg10 mi
1:20 PM63 °FPassing clouds.12 mph64%29.95 "HgN/A
12:50 PM63 °FSunny.12 mph68%29.95 "Hg10 mi
12:20 PM61 °FSunny.10 mph72%29.95 "Hg10 mi
11:50 AM59 °FSunny.8 mph77%29.95 "Hg10 mi
11:20 AM59 °FSunny.9 mph77%29.95 "Hg10 mi
10:50 AM59 °FSunny.8 mph72%29.95 "Hg10 mi
10:20 AM57 °FSunny.10 mph77%29.95 "Hg10 mi
9:50 AM55 °FSunny.9 mph77%29.92 "Hg10 mi
9:20 AM54 °FSunny.8 mph82%29.92 "Hg10 mi
8:50 AM52 °FSunny.9 mph88%29.92 "Hg10 mi
8:20 AM50 °FSunny.8 mph94%29.89 "Hg10 mi
7:50 AM50 °FSunny.9 mph88%29.89 "Hg10 mi
7:20 AM48 °FSunny.9 mph94%29.89 "Hg10 mi
6:50 AM48 °FSunny.9 mph94%29.86 "Hg10 mi
6:20 AM48 °FClear.9 mph94%29.86 "Hg10 mi
5:50 AM48 °FClear.9 mph94%29.86 "Hg10 mi
5:20 AM50 °FPassing clouds.12 mph94%29.83 "HgN/A
4:50 AM50 °FPassing clouds.10 mph94%29.83 "HgN/A
4:20 AM50 °FPassing clouds.12 mph94%29.80 "HgN/A
Weather by CustomWeather, © 2016

See weather overviewHow to use our weather pages